Regional Weather Roundup
Issued by NWS

Home | Current Version | Previous Version | Graphics & Text | Print | Product List | Glossary On
Versions: 1 2 3 4 5 6 7 8 9 10 11 12 13 14 15 16 17 18 19 20 21 22 23 24 25 26 27 28 29 30 31 32 33 34 35 36 37 38 39 40 41 42 43 44 45 46 47 48 49 50
000
ASUS43 KFSD 152210
RWRSD

WEATHER ROUNDUP FOR SOUTH DAKOTA
NATIONAL WEATHER SERVICE SIOUX FALLS SD
500 PM CDT TUE AUG 15 2017

NOTE: "FAIR" INDICATES FEW OR NO CLOUDS BELOW 12,000 FEET WITH NO
SIGNIFICANT WEATHER AND/OR OBSTRUCTIONS TO VISIBILITY.


SDZ001>005-009-010-012>017-152300-
NORTHWEST AND NORTH CENTRAL SOUTH DAKOTA

CITY           SKY/WX    TMP DP  RH WIND       PRES   REMARKS
BUFFALO          N/A     69  61  75 NW14      29.81S
FAITH            N/A     70  64  81 NW13      29.83R
MOBRIDGE       CLOUDY    71  67  87 SE9       29.79S
$$

SDZ012>016-024>037-041>051-057-063-072>074-152300-
SOUTHWEST AND SOUTH CENTRAL SOUTH DAKOTA

CITY           SKY/WX    TMP DP  RH WIND       PRES   REMARKS
RAPID CTY ARPT CLOUDY    70  57  63 N14       29.87S
PIERRE         MOSUNNY   78  66  66 SE18      29.77F
CUSTER         CLOUDY    67  52  58 SW7       29.97S
ELLSWORTH AFB  CLOUDY    71  60  69 N14       29.86F
PHILIP         PTSUNNY   83  64  52 W10       29.77F
PINE RIDGE     MOSUNNY   87  56  34 SW9       29.82F
SPEARFISH      FAIR      66  57  72 W10       29.93R
WINNER         FAIR      78  67  68 SE17      29.80F
$$

SDZ004>011-016>023-039-040-152300-
NORTHEAST SOUTH DAKOTA

CITY           SKY/WX    TMP DP  RH WIND       PRES   REMARKS
ABERDEEN       CLOUDY    71  63  75 S7        29.86F
WATERTOWN      CLOUDY    71  62  73 SE12G17   29.89F
BROOKINGS      CLOUDY    70  62  76 S12       29.91R
SISSETON         N/A     72  63  73 SE12      29.88F
$$

SDZ017-020-022-023-036>040-048>070-152300-
SOUTHEAST SOUTH DAKOTA

CITY           SKY/WX    TMP DP  RH WIND       PRES   REMARKS
SIOUX FALLS    LGT RAIN  69  65  86 SE8       29.90S
HURON          CLOUDY    74  64  71 SE14      29.85F
CHAMBERLAIN    CLOUDY    75  68  78 E10       29.82F
MITCHELL       CLOUDY    70  66  87 SE8       29.87R
YANKTON        RAIN      67  66  97 E8        29.87F FOG
$$

ABBREVIATIONS USED IN REMARKS
   TC - TEMPERATURE IN CELSIUS
  WCI - WIND CHILL INDEX
   HX - HEAT INDEX
  VSB - VISIBILITY





USA.gov is the U.S. government's official web portal to all federal, state and local government web resources and services.